Hourly Data Report for June 17, 2017

FISHER BRANCH (AUT)
MANITOBA

51°05'00.100" N
97°33'16.200" W
253.00 m
50309J6
71442
WSZ

Download Data

Hourly Data (June 2017)
Hourly Data Report for June 17, 2017
TIME
LST
Temp Definition
°C
Dew Point Definition
°C
Rel Hum Definition
%
Precip. Amount Definition
mm

Wind Dir Definition
10's deg

Wind Spd Definition
km/h
Visibility Definition
km
Stn Press Definition
kPa
Hmdx Definition


Wind Chill Definition


Weather Definition


00:00 10.6 9.0 90 0.0 32 8   97.28     LegendNANA
01:00 10.1 8.9 92 0.0 31 6   97.26     LegendNANA
02:00 9.9 8.7 92 0.0 32 8   97.26     LegendNANA
03:00 9.9 8.6 92 0.0 32 9   97.28     LegendNANA
04:00 9.8 8.6 92 0.0 31 9   97.29     LegendNANA
05:00 9.7 8.6 93 0.0 32 8   97.32     LegendNANA
06:00 9.9 8.8 93 0.0 32 8   97.34     LegendNANA
07:00 10.5 9.0 91 0.0 32 9   97.37     LegendNANA
08:00 10.5 8.9 90 0.0 31 10   97.39     LegendNANA
09:00 11.8 9.1 84 0.0 32 9   97.39     LegendNANA
10:00 12.1 9.4 83 0.0 31 11   97.38     LegendNANA
11:00 11.5 9.3 86 0.3 30 12   97.42     LegendNANA
12:00 11.7 9.9 89 0.0 31 8   97.46     LegendNANA
13:00 12.1 10.4 90 0.8 30 12   97.47     LegendNANA
14:00 12.5 10.4 87 0.0 33 15   97.50     LegendNANA
15:00 14.1 10.9 81 0.0 31 11   97.48     LegendNANA
16:00 13.9 10.8 82 0.0 34 14   97.50     LegendNANA
17:00 13.8 10.1 78 0.0 34 11   97.53     LegendNANA
18:00 13.3 10.0 81 0.0 35 13   97.57     LegendNANA
19:00 13.3 9.7 79 0.0 34 13   97.62     LegendNANA
20:00 12.6 9.8 83 0.0 34 12   97.66     LegendNANA
21:00 12.1 9.8 86 0.0 32 11   97.70     LegendNANA
22:00 11.8 9.9 88 0.0 32 12   97.72     LegendNANA
23:00 11.4 9.8 90 0.0 31 11   97.72     LegendNANA

Notes on Data Quality.

Legend

  • E = Estimated
  • M = Missing
  • NA = Not Available*
  • [empty] = Indicates an unobserved value
Date modified: